Regional Weather Roundup
Issued by NWS

Home | Current Version | Previous Version | Text Only | Print | Product List | Glossary On
Versions: 1 2 3 4 5 6 7 8 9 10 11 12 13 14 15 16 17 18 19 20 21 22 23 24 25 26 27 28 29 30 31 32 33 34 35 36 37 38 39 40 41 42 43 44 45 46 47 48 49 50
000
ASPQ40 PGUM 190012
RWRPQ
WEATHER ROUNDUP FOR THE MARIANAS AND MICRONESIA
NATIONAL WEATHER SERVICE TIYAN GU
1000 AM CHST FRI DEC 19 2014

GUZ001>004-190100-
MARIANA ISLANDS-

CITY           SKY/WX    TMP DP  RH WIND       PRES   REMARKS
GUAM AIRPORT   MOSUNNY   88  73  62 NE23G31   29.98S HX  96
ANDERSEN AFB   PTSUNNY   82  73  74 NE22G29   29.98S
ROTA AIRPORT   MOSUNNY   82  75  78 NE16G26   29.99F
TINIAN AP      MOSUNNY   84  72  65 NE21G26   29.99F
SAIPAN AP      MOSUNNY   84  72  65 NE24G35   30.00F

$$

PMZ161-190100-
REPUBLIC OF PALAU-

CITY           SKY/WX    TMP DP  RH WIND       PRES   REMARKS
KOROR AP       CLOUDY    82  79  89 E10       29.89R HX  93
KOROR WSO      PTSUNNY   84  79  84 E6        29.87R HX  96

$$

PMZ171>174-190100-
FEDERATED STATES OF MICRONESIA-

CITY           SKY/WX    TMP DP  RH WIND       PRES   REMARKS
YAP AIRPORT    PTSUNNY   86  77  74 E12       29.87S HX  97
CHUUK AP       PTSUNNY   86  79  79 NE8       29.84F HX  99
POHNPEI AP     PTSUNNY   88  77  70 E10       29.84S HX 100
POHNPEI WSO    PTSUNNY   88  77  70 E10       29.86F HX 100
KOSRAE AP      PTSUNNY   88  77  70 NE13      29.80F HX 100

$$

PMZ181-190100-
REPUBLIC OF THE MARSHALL ISLANDS-

CITY           SKY/WX    TMP DP  RH WIND       PRES   REMARKS
KWAJALEIN AP   MOSUNNY   86  75  70 E10       29.84F HX  95
MAJURO AP      CLOUDY    88  77  70 NE17      29.80  HX 100
MAJURO WSO     PTSUNNY   88  79  74 NE13      29.81F HX 102

$$




USA.gov is the U.S. government's official web portal to all federal, state and local government web resources and services.